Voltar ao catálogo

COSMOS 2303

AtivoMilitarPO
NORAD 23445·PAYLOAD·🇷🇺 Russia

Lançado Dec 26, 1994 de Plesetsk Cosmodrome

Loading…

Próximas Passagens (próximas 24 horas)

TLE

AtualizadoSource: Space-Track

Época: Sep 14, 2026, 19:36 UTC

1 23445U 94086E   26257.81693473  .00000004  00000-0 -35294-4 0  9990
2 23445  82.5715 288.9863 0011438  11.7642 162.2996 12.60563969459279

Acompanhe COSMOS 2303 em tempo real com AllMySat

Download on the App Store